SCP
0 0 0 -0 0 0 0 0 0 0 0 0 0 -0 -0 0 0 0 0 0 0 0 0 0 0 0 0 0 0 0 0 0 0 -0 0 0 0 0 0 0 0 0 0 0
0 0 -0 -0 0 0 0 0 1 1 1 0 0 -0 -0 0 0 0 0 0 0 0 0 0 0 0 0 0 0 0 0 0 0 0 0 0 0 -0 0 0 0 0 0 0
0 0 0 0 0 0 0 0 1 1 0 0 0 -0 0 0 0 0 0 0 0 0 0 0 0 0 0 0 0 0 0 0 0 -0 0 0 0 -0 0 0 0 0 0 0
0 0 0 0 0 0 0 1 0 0 0 0 0 0 0 0 0 0 0 0 0 0 0 0 0 0 0 0 0 0 0 0 0 0 0 0 0 0 -0 -0 0 -0 0 0
0 0 -0 0 0 0 0 1 0 0 0 0 0 0 0 0 0 0 0 0 0 0 0 0 0 0 0 0 0 0 0 0 0 0 0 0 0 -0 -0 -0 0 0 0 0
-0 0 0 0 0 0 0 1 1 1 0 1 0 0 0 0 0 0 0 0 0 0 0 0 0 0 0 0 0 0 0 0 0 0 0 0 0 0 0 0 0 0 0 0
-0 -0 0 0 0 0 0 1 0 0 1 1 0 0 0 0 0 0 0 0 0 0 -0 -0 -0 -0 0 0 0 0 0 0 0 0 0 0 0 0 0 0 0 0 0 0
-0 -0 0 0 0 0 0 2 1 1 3 0 0 0 0 0 0 0 0 0 0 0 0 0 0 0 0 0 0 0 0 0 0 0 0 0 0 0 0 0 0 0 0 0
-0 0 0 0 0 0 0 5 2 1 1 0 0 0 0 1 1 0 0 0 0 0 0 0 0 -0 0 -0 -0 0 0 0 0 0 0 0 0 0 0 0 0 0 0 0
0 0 0 0 0 0 0 3 2 0 0 0 0 0 0 0 0 1 0 0 0 0 0 0 0 0 0 -0 -0 0 0 0 0 0 0 0 0 0 0 0 0 0 0 0
0 0 0 0 0 0 0 3 3 1 0 0 0 0 0 0 0 1 0 0 0 0 0 0 0 0 0 0 0 0 0 0 0 0 0 0 0 0 0 0 0 0 0 0
0 0 0 0 0 0 0 3 2 3 1 1 1 1 0 0 1 1 0 0 0 0 0 1 0 0 0 0 0 0 0 0 0 0 0 0 0 0 0 0 0 0 0 0
0 0 0 0 0 0 0 2 3 2 2 0 0 0 0 0 0 1 1 1 1 0 1 0 0 0 0 0 0 0 0 0 0 0 0 0 0 0 0 0 0 0 0 0
0 0 0 0 0 0 0 1 2 1 1 1 1 0 0 0 0 0 1 1 0 0 0 1 0 0 0 0 0 0 0 0 0 0 0 0 0 0 0 0 0 0 0 0
0 0 0 0 0 0 0 1 0 1 1 0 0 0 0 0 0 0 0 0 0 0 0 0 1 0 0 0 0 0 0 0 0 0 0 0 0 0 0 0 0 0 0 0
0 0 0 0 0 0 1 1 0 0 1 0 1 0 0 0 0 0 0 0 0 0 1 0 0 0 0 0 0 0 0 0 0 0 0 0 0 0 0 0 0 0 0 0
0 0 0 0 0 0 0 0 0 0 0 1 0 1 0 0 0 0 0 0 0 1 0 0 0 0 0 0 0 0 0 0 0 0 0 0 0 0 0 0 0 0 0 0
0 0 0 0 0 0 0 0 0 0 -0 0 0 0 0 0 0 0 0 0 0 0 0 0 0 0 0 0 0 0 0 0 0 0 0 0 0 0 0 0 0 0 0 0
0 0 0 0 0 0 0 0 0 0 0 0 0 0 0 0 0 0 0 0 0 0 0 0 0 0 0 0 0 0 0 0 0 0 0 0 0 0 0 0 0 0 0 0
0 0 0 0 0 0 0 0 0 0 0 0 0 0 0 0 0 0 0 0 0 0 0 0 0 0 0 0 0 0 0 0 0 0 0 0 0 0 0 0 0 0 0 0
0 0 0 0 0 0 0 0 0 0 0 0 0 0 0 0 0 0 0 0 0 0 0 0 0 0 0 0 0 0 0 0 0 0 0 0 0 0 0 0 0 0 0 0
0 0 0 0 0 0 0 0 0 0 0 0 0 0 0 0 0 0 0 0 0 0 0 0 0 0 0 0 0 0 0 0 0 0 0 0 0 0 0 0 0 0 0 0
0 0 0 0 0 0 0 0 0 0 0 0 0 0 0 0 0 0 0 0 0 0 0 0 0 0 0 0 0 0 0 0 0 0 0 0 0 0 0 0 0 0 0 0
0 0 0 0 0 0 0 0 0 0 0 0 0 0 0 0 0 0 0 0 0 0 0 0 0 0 0 0 0 0 0 0 0 0 0 0 0 0 0 0 0 0 0 0
0 0 0 0 0 0 0 0 0 0 0 0 0 0 0 0 0 0 0 0 0 0 0 0 0 0 0 0 0 0 0 0 0 0 0 0 0 0 0 0 0 0 0 0
0 0 0 0 0 0 0 0 0 0 0 0 0 0 0 0 0 0 0 0 0 0 0 0 0 0 0 0 0 0 0 0 0 0 0 0 0 0 0 0 0 0 0 0
0 0 0 0 0 0 0 0 0 0 0 0 0 0 0 0 0 0 0 0 0 0 0 0 0 0 0 0 0 0 0 0 0 0 0 0 0 0 0 0 0 0 0 0
Wind_Speed_500mb
78 83 82 86 76 78 70 53 23 42 63 34 38 30 44 23 22 20 18 14 19 25 24 25 23 26 11 16 15 20 12 9 11 25 10 10 20 15 20 10 11 5 7 13
77 78 82 79 80 94 78 61 37 42 64 26 26 39 43 28 22 24 25 22 18 17 21 20 24 21 11 11 16 11 13 14 15 13 13 14 18 21 17 9 1 15 7 7
81 73 76 79 85 95 78 57 21 25 38 62 37 48 39 35 18 17 26 23 20 22 15 12 16 16 8 9 9 1 1 23 19 20 12 3 24 25 25 25 13 18 21 26
77 73 69 84 92 95 71 64 28 42 32 42 41 41 38 44 24 22 29 22 31 25 17 18 16 18 12 12 11 12 9 15 25 27 12 12 17 19 26 33 32 27 24 26
73 79 66 83 92 97 65 45 43 56 55 66 40 40 45 47 36 30 29 20 30 24 19 21 20 23 19 14 19 16 10 8 3 10 16 15 21 24 28 29 33 33 35 32
76 79 81 94 103 112 61 48 39 63 52 45 36 35 40 44 31 5 8 23 17 21 12 17 22 17 7 7 14 19 10 9 8 9 6 9 13 31 33 32 33 28 31 31
71 72 95 91 109 116 63 35 37 42 27 35 37 40 39 38 32 21 11 16 17 13 33 33 29 26 19 14 11 10 10 9 4 1 3 2 8 1 10 19 30 34 31 30
69 84 84 97 109 114 76 36 35 28 8 31 50 40 38 41 25 19 24 10 9 42 19 7 9 5 5 5 6 7 6 8 5 5 13 17 20 13 4 7 14 13 16 18
67 80 85 96 109 114 78 23 32 41 23 27 54 38 48 23 23 14 10 21 31 12 4 4 9 9 9 9 12 5 7 1 8 6 5 8 7 8 2 3 13 16 13 10
101 91 76 99 103 105 64 16 35 37 29 41 37 34 34 38 26 13 16 18 11 4 5 4 7 8 4 9 10 8 6 3 12 12 7 11 5 3 4 9 6 12 13 14
75 74 94 102 105 102 52 18 37 37 25 21 17 21 33 44 39 14 24 16 6 6 6 7 6 3 8 5 3 10 12 13 6 5 5 11 11 11 3 7 9 10 15 13
75 84 91 96 104 100 47 18 44 32 19 14 16 24 26 26 29 33 40 13 27 21 9 3 4 3 4 1 5 5 7 8 3 11 3 8 13 9 6 12 17 21 22 24
82 82 84 93 101 89 46 23 37 33 14 13 14 13 19 34 33 30 17 15 20 18 9 13 5 6 9 7 9 6 8 6 6 3 5 10 14 19 16 15 16 19 21 23
73 75 81 90 104 74 41 26 43 25 17 10 6 10 8 24 33 36 22 21 30 30 18 8 6 6 11 7 2 5 4 15 10 13 23 15 13 9 7 12 14 16 17 18
70 76 79 87 106 68 25 39 34 27 12 9 14 13 2 3 22 26 24 24 31 24 10 5 5 10 8 4 0 6 12 7 7 7 16 11 12 10 14 15 9 9 10 10
71 76 80 92 105 69 32 17 24 23 16 9 9 7 8 16 22 25 26 22 15 12 11 7 9 8 9 8 8 10 8 6 9 12 20 17 14 6 11 11 13 15 18 19
67 70 79 89 98 64 15 12 22 24 18 5 10 11 6 13 15 11 15 13 10 6 10 7 8 8 13 6 7 16 6 9 7 11 14 7 16 11 15 19 23 22 23 22
67 71 73 78 87 53 15 12 31 22 19 5 7 5 9 6 6 8 9 8 6 13 9 6 6 9 3 7 14 7 9 8 7 12 16 17 18 18 20 18 14 23 28 29
72 74 76 76 48 26 19 21 26 20 20 6 6 11 8 8 8 8 6 3 5 5 4 5 8 5 8 7 5 6 10 8 4 10 14 17 20 22 22 24 25 29 26 23
74 70 39 20 23 40 29 13 8 7 5 2 6 6 7 6 7 5 6 6 5 4 3 10 5 5 8 7 8 11 14 13 11 16 18 21 24 28 28 27 25 22 17 13
39 12 10 33 43 15 12 9 9 6 3 10 8 7 9 6 5 6 4 5 2 7 6 8 7 5 12 13 12 10 13 14 17 22 25 28 29 28 26 21 15 11 11 12
29 43 47 34 16 14 8 4 2 3 4 5 6 9 10 8 6 8 6 5 3 5 9 5 6 8 21 19 15 15 20 26 33 35 36 30 25 19 17 12 9 9 11 13
41 17 10 7 9 10 6 5 4 5 5 4 7 6 6 8 9 10 4 6 4 7 4 6 4 26 26 28 33 30 31 31 30 28 24 22 19 14 11 10 11 11 11 12
14 11 11 10 8 8 6 5 5 4 7 16 17 11 6 7 7 3 6 2 2 6 6 7 8 32 37 40 29 31 29 30 24 21 18 14 12 11 10 10 10 9 10 14
15 14 8 7 6 12 7 9 10 11 9 11 10 10 7 5 6 4 7 6 6 7 1 4 26 42 42 38 25 29 28 27 17 13 13 12 9 7 6 6 6 8 12 18
12 15 7 8 10 12 18 23 21 11 9 10 8 4 3 4 4 6 5 5 4 5 5 20 39 42 36 30 26 25 23 15 14 12 12 9 7 4 1 2 6 13 19 26
9 11 25 22 22 18 15 16 14 13 8 5 4 4 8 2 2 5 4 4 5 14 21 23 31 36 28 27 25 24 19 16 14 15 11 8 7 4 5 6 15 20 25 28
Wind_Direction_500mb
217 216 213 216 210 196 189 186 207 173 183 185 201 213 208 212 187 200 212 272 191 223 195 206 217 225 224 170 194 209 212 244 207 230 84 306 299 267 207 229 212 227 312 287
212 214 212 216 209 193 177 192 177 174 170 197 199 209 213 191 205 200 198 202 212 211 208 208 223 217 83 178 209 222 184 228 225 230 206 218 239 230 238 225 326 238 239 276
212 211 213 215 211 190 179 184 170 165 193 211 195 203 198 201 214 203 197 201 176 188 197 211 195 192 155 187 202 295 140 243 229 244 275 300 207 241 218 215 223 245 242 281
224 212 209 206 206 187 182 202 195 181 182 202 196 202 200 197 180 226 195 191 204 197 207 190 206 185 160 183 178 193 237 238 238 262 291 291 282 259 224 234 237 252 263 269
209 217 211 204 195 184 199 208 194 180 172 196 207 194 216 194 193 182 196 215 203 206 195 208 212 196 192 185 181 197 199 228 276 254 244 264 265 256 253 243 249 254 260 275
208 213 206 204 186 184 194 208 200 178 168 190 202 194 212 194 180 209 242 214 167 195 84 67 51 78 78 121 178 196 185 171 182 246 359 296 288 239 248 248 248 251 263 272
207 211 202 201 188 186 184 199 179 166 175 186 195 189 212 193 179 172 158 180 181 117 124 102 83 84 87 97 71 157 166 178 171 246 228 294 262 277 291 269 264 256 261 271
205 213 207 200 187 184 193 194 184 176 135 188 196 189 208 191 149 136 133 68 117 144 146 127 126 110 93 124 87 130 224 166 152 183 223 289 286 192 243 238 286 328 323 308
211 201 203 187 184 179 199 184 193 159 153 197 190 185 202 158 146 141 98 120 130 136 124 138 191 195 218 161 151 130 95 125 226 168 221 237 74 73 92 212 258 49 31 11
200 207 192 184 183 180 194 201 175 162 164 185 177 197 202 190 173 140 137 163 156 180 111 124 188 202 327 187 192 188 138 215 214 206 252 283 48 170 210 238 40 14 353 321
197 174 175 181 179 180 184 202 168 168 151 134 181 198 189 204 197 160 141 140 146 164 163 180 176 151 196 222 205 180 184 174 189 180 209 261 140 140 229 35 317 336 324 305
167 174 178 180 180 178 176 177 163 165 155 125 153 178 187 189 204 196 174 209 156 176 173 85 113 128 41 66 227 190 219 228 260 213 229 110 184 310 298 305 301 305 304 297
171 173 176 179 179 175 171 164 154 161 120 121 148 161 201 198 188 166 178 195 160 174 146 147 132 148 168 166 222 191 216 184 230 302 164 247 261 280 284 288 284 298 305 305
170 173 177 178 174 172 155 168 167 160 137 115 144 198 192 202 202 195 179 175 172 158 143 121 135 128 217 185 305 204 356 163 226 246 273 272 274 261 314 320 313 311 314 317
170 174 175 174 173 169 151 162 158 166 170 128 142 135 70 146 187 186 189 175 162 154 131 112 135 127 131 95 37 230 193 242 213 250 19 328 332 14 328 317 341 348 354 2
171 172 173 173 175 170 132 142 157 149 128 114 152 123 83 90 113 123 134 146 151 162 128 121 120 138 179 154 200 85 74 15 344 295 314 305 299 47 26 66 61 64 71 72
166 169 171 173 175 169 197 180 173 173 184 174 131 134 129 122 131 110 110 100 108 145 115 80 132 134 171 156 209 109 40 358 17 351 324 217 39 79 73 86 84 85 88 92
158 161 164 166 171 180 186 104 140 167 216 250 133 103 147 106 80 85 54 75 145 47 91 93 115 113 181 218 101 64 13 343 62 37 58 91 101 95 91 98 97 88 84 85
143 147 149 150 162 174 138 91 138 193 212 237 143 146 151 118 77 80 78 83 88 94 103 136 154 156 200 95 115 47 23 23 18 90 89 98 102 102 101 101 94 92 94 92
133 126 127 130 149 137 111 127 98 222 244 64 89 93 116 156 128 91 111 45 137 136 126 141 204 135 115 115 109 91 60 48 127 122 111 114 107 111 108 101 97 90 86 66
125 101 74 129 128 109 74 147 246 260 92 40 77 97 118 75 127 128 32 124 94 158 147 205 174 201 163 142 124 97 84 87 90 106 118 120 114 118 115 107 85 75 38 16
122 131 130 122 136 178 154 121 150 36 86 45 79 84 91 92 98 106 130 106 132 162 135 192 215 126 146 148 135 114 108 109 106 108 111 113 108 106 123 109 71 38 24 21
103 94 81 20 2 60 70 146 76 81 37 76 132 88 81 102 85 81 111 152 125 158 175 223 44 139 155 150 132 123 119 117 117 116 115 112 111 109 95 81 68 57 40 26
61 61 41 19 28 45 27 6 37 56 103 97 98 75 70 73 71 31 110 59 200 203 223 207 137 159 155 149 142 141 137 136 126 123 121 113 111 105 94 87 74 55 35 14
58 38 64 68 84 54 51 66 65 65 83 76 80 71 74 54 109 45 118 149 220 228 331 118 153 164 158 154 149 141 146 138 125 130 135 131 124 112 93 69 38 17 356 338
56 45 77 102 92 46 46 58 55 61 74 72 60 86 98 86 87 167 195 213 207 94 77 137 161 159 155 158 153 150 154 147 142 146 151 156 170 191 226 320 309 316 323 335
60 48 62 76 77 70 62 57 44 55 52 49 24 52 45 113 143 127 11 27 47 125 141 141 161 164 156 156 156 164 165 153 157 172 192 204 202 226 264 291 312 330 329 332
Wind_Speed_850mb
78 83 82 86 76 78 70 53 23 42 63 34 38 30 44 23 22 20 18 14 19 25 24 25 23 26 11 16 15 20 12 9 11 25 10 10 20 15 20 10 11 5 7 13
77 78 82 79 80 94 78 61 37 42 64 26 26 39 43 28 22 24 25 22 18 17 21 20 24 21 11 11 16 11 13 14 15 13 13 14 18 21 17 9 1 15 7 7
81 73 76 79 85 95 78 57 21 25 38 62 37 48 39 35 18 17 26 23 20 22 15 12 16 16 8 9 9 1 1 23 19 20 12 3 24 25 25 25 13 18 21 26
77 73 69 84 92 95 71 64 28 42 32 42 41 41 38 44 24 22 29 22 31 25 17 18 16 18 12 12 11 12 9 15 25 27 12 12 17 19 26 33 32 27 24 26
73 79 66 83 92 97 65 45 43 56 55 66 40 40 45 47 36 30 29 20 30 24 19 21 20 23 19 14 19 16 10 8 3 10 16 15 21 24 28 29 33 33 35 32
76 79 81 94 103 112 61 48 39 63 52 45 36 35 40 44 31 5 8 23 17 21 12 17 22 17 7 7 14 19 10 9 8 9 6 9 13 31 33 32 33 28 31 31
71 72 95 91 109 116 63 35 37 42 27 35 37 40 39 38 32 21 11 16 17 13 33 33 29 26 19 14 11 10 10 9 4 1 3 2 8 1 10 19 30 34 31 30
69 84 84 97 109 114 76 36 35 28 8 31 50 40 38 41 25 19 24 10 9 42 19 7 9 5 5 5 6 7 6 8 5 5 13 17 20 13 4 7 14 13 16 18
67 80 85 96 109 114 78 23 32 41 23 27 54 38 48 23 23 14 10 21 31 12 4 4 9 9 9 9 12 5 7 1 8 6 5 8 7 8 2 3 13 16 13 10
101 91 76 99 103 105 64 16 35 37 29 41 37 34 34 38 26 13 16 18 11 4 5 4 7 8 4 9 10 8 6 3 12 12 7 11 5 3 4 9 6 12 13 14
75 74 94 102 105 102 52 18 37 37 25 21 17 21 33 44 39 14 24 16 6 6 6 7 6 3 8 5 3 10 12 13 6 5 5 11 11 11 3 7 9 10 15 13
75 84 91 96 104 100 47 18 44 32 19 14 16 24 26 26 29 33 40 13 27 21 9 3 4 3 4 1 5 5 7 8 3 11 3 8 13 9 6 12 17 21 22 24
82 82 84 93 101 89 46 23 37 33 14 13 14 13 19 34 33 30 17 15 20 18 9 13 5 6 9 7 9 6 8 6 6 3 5 10 14 19 16 15 16 19 21 23
73 75 81 90 104 74 41 26 43 25 17 10 6 10 8 24 33 36 22 21 30 30 18 8 6 6 11 7 2 5 4 15 10 13 23 15 13 9 7 12 14 16 17 18
70 76 79 87 106 68 25 39 34 27 12 9 14 13 2 3 22 26 24 24 31 24 10 5 5 10 8 4 0 6 12 7 7 7 16 11 12 10 14 15 9 9 10 10
71 76 80 92 105 69 32 17 24 23 16 9 9 7 8 16 22 25 26 22 15 12 11 7 9 8 9 8 8 10 8 6 9 12 20 17 14 6 11 11 13 15 18 19
67 70 79 89 98 64 15 12 22 24 18 5 10 11 6 13 15 11 15 13 10 6 10 7 8 8 13 6 7 16 6 9 7 11 14 7 16 11 15 19 23 22 23 22
67 71 73 78 87 53 15 12 31 22 19 5 7 5 9 6 6 8 9 8 6 13 9 6 6 9 3 7 14 7 9 8 7 12 16 17 18 18 20 18 14 23 28 29
72 74 76 76 48 26 19 21 26 20 20 6 6 11 8 8 8 8 6 3 5 5 4 5 8 5 8 7 5 6 10 8 4 10 14 17 20 22 22 24 25 29 26 23
74 70 39 20 23 40 29 13 8 7 5 2 6 6 7 6 7 5 6 6 5 4 3 10 5 5 8 7 8 11 14 13 11 16 18 21 24 28 28 27 25 22 17 13
39 12 10 33 43 15 12 9 9 6 3 10 8 7 9 6 5 6 4 5 2 7 6 8 7 5 12 13 12 10 13 14 17 22 25 28 29 28 26 21 15 11 11 12
29 43 47 34 16 14 8 4 2 3 4 5 6 9 10 8 6 8 6 5 3 5 9 5 6 8 21 19 15 15 20 26 33 35 36 30 25 19 17 12 9 9 11 13
41 17 10 7 9 10 6 5 4 5 5 4 7 6 6 8 9 10 4 6 4 7 4 6 4 26 26 28 33 30 31 31 30 28 24 22 19 14 11 10 11 11 11 12
14 11 11 10 8 8 6 5 5 4 7 16 17 11 6 7 7 3 6 2 2 6 6 7 8 32 37 40 29 31 29 30 24 21 18 14 12 11 10 10 10 9 10 14
15 14 8 7 6 12 7 9 10 11 9 11 10 10 7 5 6 4 7 6 6 7 1 4 26 42 42 38 25 29 28 27 17 13 13 12 9 7 6 6 6 8 12 18
12 15 7 8 10 12 18 23 21 11 9 10 8 4 3 4 4 6 5 5 4 5 5 20 39 42 36 30 26 25 23 15 14 12 12 9 7 4 1 2 6 13 19 26
9 11 25 22 22 18 15 16 14 13 8 5 4 4 8 2 2 5 4 4 5 14 21 23 31 36 28 27 25 24 19 16 14 15 11 8 7 4 5 6 15 20 25 28
Wind_Direction_850mb
217 216 213 216 210 196 189 186 207 173 183 185 201 213 208 212 187 200 212 272 191 223 195 206 217 225 224 170 194 209 212 244 207 230 84 306 299 267 207 229 212 227 312 287
212 214 212 216 209 193 177 192 177 174 170 197 199 209 213 191 205 200 198 202 212 211 208 208 223 217 83 178 209 222 184 228 225 230 206 218 239 230 238 225 326 238 239 276
212 211 213 215 211 190 179 184 170 165 193 211 195 203 198 201 214 203 197 201 176 188 197 211 195 192 155 187 202 295 140 243 229 244 275 300 207 241 218 215 223 245 242 281
224 212 209 206 206 187 182 202 195 181 182 202 196 202 200 197 180 226 195 191 204 197 207 190 206 185 160 183 178 193 237 238 238 262 291 291 282 259 224 234 237 252 263 269
209 217 211 204 195 184 199 208 194 180 172 196 207 194 216 194 193 182 196 215 203 206 195 208 212 196 192 185 181 197 199 228 276 254 244 264 265 256 253 243 249 254 260 275
208 213 206 204 186 184 194 208 200 178 168 190 202 194 212 194 180 209 242 214 167 195 84 67 51 78 78 121 178 196 185 171 182 246 359 296 288 239 248 248 248 251 263 272
207 211 202 201 188 186 184 199 179 166 175 186 195 189 212 193 179 172 158 180 181 117 124 102 83 84 87 97 71 157 166 178 171 246 228 294 262 277 291 269 264 256 261 271
205 213 207 200 187 184 193 194 184 176 135 188 196 189 208 191 149 136 133 68 117 144 146 127 126 110 93 124 87 130 224 166 152 183 223 289 286 192 243 238 286 328 323 308
211 201 203 187 184 179 199 184 193 159 153 197 190 185 202 158 146 141 98 120 130 136 124 138 191 195 218 161 151 130 95 125 226 168 221 237 74 73 92 212 258 49 31 11
200 207 192 184 183 180 194 201 175 162 164 185 177 197 202 190 173 140 137 163 156 180 111 124 188 202 327 187 192 188 138 215 214 206 252 283 48 170 210 238 40 14 353 321
197 174 175 181 179 180 184 202 168 168 151 134 181 198 189 204 197 160 141 140 146 164 163 180 176 151 196 222 205 180 184 174 189 180 209 261 140 140 229 35 317 336 324 305
167 174 178 180 180 178 176 177 163 165 155 125 153 178 187 189 204 196 174 209 156 176 173 85 113 128 41 66 227 190 219 228 260 213 229 110 184 310 298 305 301 305 304 297
171 173 176 179 179 175 171 164 154 161 120 121 148 161 201 198 188 166 178 195 160 174 146 147 132 148 168 166 222 191 216 184 230 302 164 247 261 280 284 288 284 298 305 305
170 173 177 178 174 172 155 168 167 160 137 115 144 198 192 202 202 195 179 175 172 158 143 121 135 128 217 185 305 204 356 163 226 246 273 272 274 261 314 320 313 311 314 317
170 174 175 174 173 169 151 162 158 166 170 128 142 135 70 146 187 186 189 175 162 154 131 112 135 127 131 95 37 230 193 242 213 250 19 328 332 14 328 317 341 348 354 2
171 172 173 173 175 170 132 142 157 149 128 114 152 123 83 90 113 123 134 146 151 162 128 121 120 138 179 154 200 85 74 15 344 295 314 305 299 47 26 66 61 64 71 72
166 169 171 173 175 169 197 180 173 173 184 174 131 134 129 122 131 110 110 100 108 145 115 80 132 134 171 156 209 109 40 358 17 351 324 217 39 79 73 86 84 85 88 92
158 161 164 166 171 180 186 104 140 167 216 250 133 103 147 106 80 85 54 75 145 47 91 93 115 113 181 218 101 64 13 343 62 37 58 91 101 95 91 98 97 88 84 85
143 147 149 150 162 174 138 91 138 193 212 237 143 146 151 118 77 80 78 83 88 94 103 136 154 156 200 95 115 47 23 23 18 90 89 98 102 102 101 101 94 92 94 92
133 126 127 130 149 137 111 127 98 222 244 64 89 93 116 156 128 91 111 45 137 136 126 141 204 135 115 115 109 91 60 48 127 122 111 114 107 111 108 101 97 90 86 66
125 101 74 129 128 109 74 147 246 260 92 40 77 97 118 75 127 128 32 124 94 158 147 205 174 201 163 142 124 97 84 87 90 106 118 120 114 118 115 107 85 75 38 16
122 131 130 122 136 178 154 121 150 36 86 45 79 84 91 92 98 106 130 106 132 162 135 192 215 126 146 148 135 114 108 109 106 108 111 113 108 106 123 109 71 38 24 21
103 94 81 20 2 60 70 146 76 81 37 76 132 88 81 102 85 81 111 152 125 158 175 223 44 139 155 150 132 123 119 117 117 116 115 112 111 109 95 81 68 57 40 26
61 61 41 19 28 45 27 6 37 56 103 97 98 75 70 73 71 31 110 59 200 203 223 207 137 159 155 149 142 141 137 136 126 123 121 113 111 105 94 87 74 55 35 14
58 38 64 68 84 54 51 66 65 65 83 76 80 71 74 54 109 45 118 149 220 228 331 118 153 164 158 154 149 141 146 138 125 130 135 131 124 112 93 69 38 17 356 338
56 45 77 102 92 46 46 58 55 61 74 72 60 86 98 86 87 167 195 213 207 94 77 137 161 159 155 158 153 150 154 147 142 146 151 156 170 191 226 320 309 316 323 335
60 48 62 76 77 70 62 57 44 55 52 49 24 52 45 113 143 127 11 27 47 125 141 141 161 164 156 156 156 164 165 153 157 172 192 204 202 226 264 291 312 330 329 332